Location: ??????
(41.3164°N, 22.6615°E)
Time: 02:50:07
(UTC+00:00)

UWE-3 - Pass Details

Date: 01 July 2022
Orbit: 583 x 677 km, 97.7° (Epoch: 11 August)

Event Time Altitude Azimuth Distance (km) Brightness Sun altitude
Rises 02:12:33 0° 8° (N) 2,889 ? -8.0°
Reaches altitude 10° 02:14:44 10° 4° (N) 1,994 ? -7.7°
Maximum altitude 02:19:00 59° 286° (WNW) 733 ? -7.0°
Drops below altitude 10° 02:23:22 10° 207° (SSW) 2,037 ? -6.4°
Enters shadow 02:24:32 - 205° (SSW) 2,513 ? -6.2°
